Regional Weather Roundup
Issued by NWS Goodland, KS

Home | Current Version | Previous Version | Text Only | Print | Product List | Glossary On
Versions: 1 2 3 4 5 6 7 8 9 10 11 12 13 14 15 16 17 18 19 20 21 22 23 24 25 26 27 28 29 30 31 32 33 34 35 36 37 38 39 40 41 42 43 44 45 46 47 48 49 50
000
ASUS43 KGLD 261308
RWRGLD

GOODLAND FORECAST AREA HOURLY WEATHER ROUNDUP
NATIONAL WEATHER SERVICE GOODLAND KS
700 AM MDT FRI MAY 26 2017

...OFFICIAL OBSERVATIONS...

CITY           SKY/WX    TMP DP  RH WIND       PRES   REMARKS
GOODLAND KS    CLOUDY    54  51  90 N14       29.91R
HILL CITY KS   SUNNY     62  57  83 N9        29.85R
IMPERIAL NEB   MOSUNNY   51  44  77 N9        29.93R
MCCOOK NEB     CLOUDY    55  45  68 N8        29.88S
AKRON CO       SUNNY     48  42  80 N7        29.98R
BURLINGTON CO  MOSUNNY   54  50  86 N15       29.94R
LIMON CO       MOSUNNY   47  47 100 NW9       29.99R
$$

...UNOFFICIAL OBSERVATIONS...

CITY           SKY/WX    TMP DP  RH WIND       PRES   REMARKS
NORTON KS      MOSUNNY   55  45  67 NW10      29.87R
SHARON SPRINGS   N/A     57  51  79 NW9         N/A
YUMA CO        FAIR      46  41  81 NW7       29.96R
$$



USA.gov is the U.S. government's official web portal to all federal, state and local government web resources and services.